Home   Weather   Charlottesville   Past weeks

Flag for USA Past Weather in Charlottesville, Virginia, USA — Yesterday and Last 2 Weeks

Now
53 °F

Low clouds.


Feels Like: 49 °F
Forecast: 53 / 62 °F
Wind: 13 mph from Northeast

Location: Charlottesville-Albemarle Airport

Current Time: Apr 25, 2017 at 2:55:30 am

Latest Report: Apr 25, 2017 at 1:53 am


Visibility: 8 mi

Pressure: 29.88 "Hg

Humidity: 89%

Dew Point: 50 °F

Location of CharlottesvilleLocation

Past Weather in Charlottesville — Graph

°F

Charlottesville Temperature Yesterday

Maximum temperature yesterday: 54 °F (at 1:53 pm)
Minimum temperature yesterday: 48 °F (at 7:26 am)
Average temperature yesterday: 51 °F

High & Low Weather Summary for the Past Weeks

 TemperatureHumidityPressure
High88 °F (Apr 16, 2:53 pm)97% (Apr 20, 10:09 pm)30.42 "Hg (Apr 20, 10:09 pm)
Low48 °F (Apr 24, 7:26 am)23% (Apr 10, 4:53 pm)29.77 "Hg (Apr 21, 5:53 pm)
Average64 °F63%30.12 "Hg
* Reported Apr 10 12:53 am — Apr 25 12:53 am, Charlottesville, Weather by CustomWeather, © 2017

Note: Actual official high and low records may vary slightly from our data, if they occured in-between our weather recording intervals... More about our weather records

Advertising

Charlottesville Weather History for the Previous 24 Hours

Scroll right to see more
 ConditionsComfort  
Time TempWeatherWind HumidityBarometerVisibility
12:53 am
Tue, Apr 25
52 °FLow clouds.16 mph93%29.91 "Hg10 mi
11:53 pm
Mon, Apr 24
52 °FLow clouds.17 mph93%29.93 "Hg10 mi
11:00 pm51 °FHeavy rain. Fog.17 mph92%29.96 "Hg5 mi
10:14 pm51 °FLight rain. Fog.16 mph92%29.97 "Hg2 mi
9:53 pm51 °FLight rain. Fog.17 mph92%29.96 "Hg2 mi
8:53 pm51 °FLight rain. Fog.18 mph92%29.96 "Hg2 mi
7:53 pm51 °FLight rain. Fog.18 mph89%29.96 "Hg2 mi
6:53 pm51 °FRain. Fog.13 mph92%29.97 "Hg2 mi
6:11 pm52 °FRain. Fog.15 mph89%29.97 "Hg2 mi
5:55 pm52 °FRain. Fog.21 mph93%29.96 "Hg2 mi
4:53 pm53 °FLight rain. Fog.16 mph89%29.96 "Hg2 mi
3:53 pm54 °FLight rain. Overcast.13 mph90%29.97 "Hg10 mi
2:53 pm54 °FRain. Fog.14 mph90%29.98 "Hg3 mi
1:53 pm54 °FLight rain. Fog.9 mph90%29.99 "Hg2 mi
12:53 pm53 °FLight rain. Fog.14 mph93%30.00 "Hg2 mi
12:36 pm53 °FRain. Fog.13 mph93%30.02 "Hg2 mi
11:53 am53 °FRain. Fog.17 mph89%30.02 "Hg2 mi
10:53 am51 °FLight rain. Fog.15 mph92%30.03 "Hg2 mi
10:02 am50 °FLight rain. Fog.12 mph93%30.04 "Hg2 mi
9:40 am50 °FLight rain. Fog.8 mph93%30.05 "Hg2 mi
9:07 am49 °FRain. Fog.9 mph93%30.05 "Hg1 mi
7:53 am48 °FLight rain. Fog.15 mph93%30.03 "Hg2 mi
7:26 am48 °FLight rain. Fog.15 mph89%30.05 "Hg2 mi
6:53 am49 °FLight rain. Fog.13 mph90%30.04 "Hg2 mi
6:36 am50 °FLight rain. Fog.15 mph86%30.03 "Hg5 mi
5:53 am51 °FLight rain. Mostly cloudy.12 mph89%30.02 "Hg10 mi
5:13 am51 °FLight rain. Mostly cloudy.8 mph89%30.02 "Hg10 mi
4:53 am51 °FLight rain. Overcast.13 mph89%30.01 "Hg10 mi
3:53 am51 °FLight rain. Mostly cloudy.5 mph89%30.02 "Hg10 mi
2:53 am51 °FLight rain. Overcast.6 mph92%30.03 "Hg10 mi
Weather by CustomWeather, © 2017

See weather overviewHow to use our weather pages